Погода в Абинске

Россия / Краснодарский край     44°51′58″N   38°09′04″E
темп.,
°C
ветер,
м/с
пор.,
м/с
влажн.,
%
обл.,
%
осадки,
мм/ч
давл.,
гПа
погр.,
м
16 мая, вс
вс1600:00+15в019430 0.2 101212
03:00+15св119699 0.3 101116
06:00+15св1197100 0.0 101036
09:00+21св248454 0.0 1009429
12:00+25всв477246 0.0 1006797
15:00+27всв57653 0.0 10051216
18:00+25всв48784 0.0 1003705
21:00+19вюв119459 0.0 100213
17 мая, пн
пн1700:00+16ююз359790 0.0 1003106
03:00+19ю51663100 0.0 1002732
06:00+14ююз31192100 0.0 1005459
09:00+19ююз3769100 0.0 1006582
12:00+21ююз4663100 0.0 1008900
15:00+20зюз466352 0.0 1009832
18:00+19юз246922 0.0 1010384
21:00+12ю339614 0.0 101263
18 мая, вт
вт1800:00+12ююз369737 0.0 1011241
03:00+12ююз359654 0.0 1011201
06:00+13ю249497 0.0 1012182
09:00+18ю466721 0.0 1012845
12:00+21ююз57560 0.0 10121138
15:00+21ююз5755100 0.0 10111098
18:00+18ююз3671100 0.0 1011494
21:00+13ююз349595 0.1 101294
19 мая, ср
ср1900:00+14ююз3109325 0.3 1012515
03:00+13юз379584 0.5 1013401
06:00+13ююз349133 0.0 1015153
09:00+17юз35660 0.0 1016845
12:00+19юз57550 0.0 10171403
15:00+19ююз57570 0.0 10171266
18:00+18ююз25650 0.0 1017643
21:00+11ю22920 0.0 101717
20 мая, чт
чт2000:00+10в11840 0.0 101610
03:00+10вюв11850 0.0 101513
06:00+11всв11865 0.0 101423
09:00+18всв34656 0.0 1012396
12:00+24всв45505 0.0 1010855
15:00+26всв5650100 0.0 1008667
18:00+23всв387258 0.0 1007544
21:00+18всв119492 0.0 100613